Weather History for Anchorage Merrill, AK

Change the Weather History Date:

Wednesday, October 30, 2013

  Actual Average Record
Temperature  
Mean Temperature 41 °F -  
Max Temperature 45 °F 32 °F 46 °F (1993)
Min Temperature 37 °F 22 °F 14 °F (2001)
Degree Days  
Heating Degree Days 24    
Moisture  
Dew Point 32 °F    
Average Humidity 72    
Maximum Humidity 83    
Minimum Humidity 60    
Precipitation  
Precipitation 0.00 in - - ()
Sea Level Pressure  
Sea Level Pressure 29.16 in    
Wind  
Wind Speed 0 mph (NW)    
Max Wind Speed 4 mph    
Max Gust Speed -    
Visibility 10 miles    
Events      
Averages and records for this station are not official NWS values.
T = Trace of Precipitation, MM = Missing Value Source: NWS Daily Summary

Daily Weather History Graph

Daily Weather History Graph

Search for Another Location

Airport:

Trip Planner

Search our weather history database for the weather conditions in past years. The results will help you decide how hot, cold, wet, or windy it might be!

Date:

Astronomy

Oct. 30, 2013 Rise Set
Actual Time 9:23 AM AKDT 6:02 PM AKDT
Civil Twilight 8:36 AM AKDT 6:48 PM AKDT
Nautical Twilight 7:44 AM AKDT 7:39 PM AKDT
Astronomical Twilight 6:54 AM AKDT 8:29 PM AKDT
Moon 4:19 AM AKDT (10/30) 4:46 PM AKDT (10/30)
Length of Visible Light 10h 12m
Length of Day
8h 39m
Waning Crescent, 16% of the Moon is Illuminated
Oct 30
Waning Crescent
Nov 3
New
Nov 9
First Quarter
Nov 17
Full
Nov 25
Last Quarter

Hourly Weather History & Observations

Time (AKDT) Temp. Windchill Dew Point Humidity Pressure Visibility Wind Dir Wind Speed Gust Speed Precip Events Conditions
12:53 AM 39.9 °F - 33.1 °F 77% 29.34 in 10.0 mi Calm Calm - N/A   Overcast
1:53 AM 39.0 °F - 33.1 °F 79% 29.31 in 10.0 mi Calm Calm - N/A   Overcast
2:53 AM 37.9 °F - 32.0 °F 79% 29.27 in 10.0 mi Calm Calm - N/A   Overcast
3:53 AM 37.9 °F 35.5 °F 33.1 °F 83% 29.25 in 10.0 mi SSW 3.5 mph - N/A   Overcast
4:53 AM 37.9 °F - 32.0 °F 79% 29.21 in 10.0 mi Calm Calm - N/A   Overcast
5:53 AM 37.0 °F - 32.0 °F 82% 29.19 in 10.0 mi Calm Calm - N/A   Overcast
6:53 AM 37.9 °F - 32.0 °F 79% 29.18 in 10.0 mi Calm Calm - N/A   Mostly Cloudy
7:53 AM 39.0 °F - 32.0 °F 76% 29.15 in 10.0 mi Calm Calm - N/A   Overcast
8:53 AM 37.9 °F - 30.9 °F 76% 29.14 in 10.0 mi Calm Calm - N/A   Mostly Cloudy
9:53 AM 39.0 °F - 30.9 °F 73% 29.13 in 10.0 mi Calm Calm - N/A   Mostly Cloudy
10:53 AM 41.0 °F - 32.0 °F 70% 29.12 in 10.0 mi Calm Calm - N/A   Partly Cloudy
11:53 AM 42.1 °F - 30.9 °F 65% 29.12 in 10.0 mi Calm Calm - N/A   Partly Cloudy
12:53 PM 45.0 °F 43.5 °F 32.0 °F 60% 29.11 in 10.0 mi NNW 3.5 mph - N/A   Scattered Clouds
1:53 PM 44.1 °F - 30.9 °F 60% 29.11 in 10.0 mi Calm Calm - N/A   Mostly Cloudy
2:53 PM 44.1 °F - 32.0 °F 63% 29.11 in 10.0 mi Calm Calm - N/A   Overcast
3:53 PM 45.0 °F - 32.0 °F 60% 29.11 in 10.0 mi Calm Calm - N/A   Overcast
4:53 PM 45.0 °F - 32.0 °F 60% 29.11 in 10.0 mi Calm Calm - N/A   Overcast
5:53 PM 43.0 °F - 32.0 °F 65% 29.11 in 10.0 mi North - - N/A   Clear
6:53 PM 43.0 °F 41.3 °F 32.0 °F 65% 29.11 in 10.0 mi NNW 3.5 mph - N/A   Mostly Cloudy
7:53 PM 39.0 °F - 32.0 °F 76% 29.12 in 10.0 mi North - - N/A   Mostly Cloudy
8:53 PM 39.9 °F - 33.1 °F 77% 29.13 in 10.0 mi North - - N/A   Overcast
9:53 PM 39.9 °F - 33.1 °F 77% 29.14 in 10.0 mi Calm Calm - N/A   Overcast
10:53 PM 39.0 °F - 32.0 °F 76% 29.14 in 10.0 mi Calm Calm - N/A   Overcast
11:53 PM 39.0 °F - 32.0 °F 76% 29.16 in 10.0 mi Calm Calm - N/A   Overcast